Location: Gleizolles
(44.4833°N, 6.7667°E)
Time: 02:04:16
(UTC+00:00)

Vanguard 1 Rocket - Pass Details

Date: 01 July 2024
Orbit: 650 x 4219 km, 34.3° (Epoch: 15 July)

Event Time Altitude Azimuth Distance (km) Brightness Sun altitude
Rises 07:02:28 0° 278° (W) 7,455 11.5 30.9°
Reaches altitude 10° 07:09:44 10° 263° (W) 6,917 11.4 32.2°
Maximum altitude 07:23:26 19° 228° (SW) 6,629 11.6 34.7°
Drops below altitude 10° 07:37:59 10° 193° (SSW) 7,240 12.0 37.3°
Sets 07:46:16 0° 178° (S) 7,885 12.3 38.7°
